Starlink 5935

operational
NORAD ID: 56453 Int'l Des: 2023-064 Owner: SPXS Country: US Constellation: starlink
LEOCIRCULAR

About Starlink 5935

Description loading...

Live Position

Loading 3D Globe...

Upcoming Passes

Altitude History

Altitude vs Time

uPlot chart will show altitude changes over time

Two-Line Element Set

1 56453U 23064F 25257.18009159 -.00000168 00000-0 -63075-5 0 9995
2 56453 69.9995 229.6171 0003499 269.4477 90.6281 14.98330055128807
Epoch: Sep 14, 2025 • Age: 27 hours

Current Status

Altitude 574.8 km
Velocity 7.57 km/s
Sub-Earth Point 18.33°N, 124.41°E
Launch Date May 10, 2023
Age 2.3 years
Type internet

Technical Details

Classification Payload
Mass 305.00 kg
Dry Mass 290.00 kg
Total Mass 305.00 kg
Length 0.20 m
Diameter 2.80 m
Span 9.00 m
Shape Box + pan
Manufacturer SPXS
Bus Type Starlink
Phase Status In Orbit
Owner/State SPXS/US

Large Constellations

Loading constellations...